Lapse_Rate
5.5 5.0 4.8 4.8 4.7 4.5 4.4 4.2 4.0 4.1 4.0 4.1 4.2 4.2 4.1 4.1 4.1 4.0 3.7 3.5 3.4 3.4 3.5 3.8 4.3 4.5 4.8 4.9 5.0 5.5 5.7 5.6 5.9 5.6 6.2 7.0 7.0 7.7 7.6 8.0 8.2 8.5 8.6 8.4 8.6 8.5 8.2 7.6 7.4 6.7 6.8 6.8 6.5 6.6
4.8 4.9 4.7 4.6 4.2 3.9 4.2 4.5 4.4 4.5 4.5 4.5 4.1 3.8 3.5 3.4 3.3 3.4 3.5 3.5 3.6 3.7 3.9 4.2 4.5 4.9 5.2 5.6 6.1 6.1 6.1 6.1 5.9 6.5 6.7 7.0 7.4 7.6 7.8 8.0 8.6 8.5 8.6 8.3 8.1 8.3 8.1 7.7 6.8 7.0 6.5 6.5 6.9 6.8
4.5 4.6 4.6 4.8 4.7 4.5 4.3 4.2 4.4 4.4 4.2 3.8 3.5 3.3 3.1 3.1 3.1 3.2 3.3 3.3 3.5 4.1 4.5 5.0 5.5 5.7 6.0 6.0 6.1 6.4 6.9 6.9 7.1 7.0 6.8 7.0 7.2 7.5 8.0 8.6 8.8 8.8 8.2 7.8 7.5 7.5 6.9 6.8 6.9 6.6 6.5 6.7 6.9 6.9
5.2 5.1 5.1 5.0 4.8 4.7 4.6 4.4 4.1 3.8 3.5 3.2 2.9 2.8 2.8 2.9 2.8 2.9 3.3 3.8 4.4 5.1 5.7 5.8 6.0 6.1 6.6 6.7 7.1 7.1 7.3 7.4 7.2 7.1 6.7 6.9 7.4 7.8 8.0 8.1 7.7 7.6 7.4 7.1 6.5 7.0 6.8 6.8 6.7 6.7 6.7 6.8 7.1 7.1
5.6 5.7 5.6 5.2 4.9 4.6 4.3 4.0 3.6 3.2 2.8 2.4 2.2 2.1 2.5 2.8 3.5 3.8 4.4 4.9 5.5 5.9 6.3 6.5 7.0 7.4 7.4 7.5 7.6 7.4 7.3 7.3 7.3 6.9 7.0 6.8 7.4 7.7 7.4 7.1 7.4 7.2 6.8 6.3 6.6 6.6 6.7 6.9 6.7 6.7 6.8 6.9 6.9 6.9
5.3 5.1 4.9 4.5 4.2 4.0 4.1 3.9 3.2 2.6 2.4 2.3 2.3 2.8 3.3 3.9 4.7 5.0 5.4 5.9 6.5 6.9 7.0 7.1 7.2 7.2 7.2 7.2 7.4 7.5 7.5 7.3 7.1 7.1 7.1 7.2 6.8 6.8 6.9 7.5 6.9 6.8 6.6 6.4 6.6 7.0 6.9 6.8 6.9 6.8 6.8 6.8 6.8 6.7
5.1 5.1 5.2 5.2 5.0 5.0 5.0 4.8 4.3 3.8 3.7 3.5 3.8 4.1 4.6 5.3 5.6 5.8 6.2 6.7 6.9 7.0 7.1 7.2 7.0 7.1 7.2 7.3 7.3 7.2 7.1 7.1 7.0 6.8 6.9 6.6 6.4 6.6 6.8 6.3 6.8 6.4 6.4 6.8 6.8 6.6 6.8 6.7 6.7 6.8 6.8 6.7 6.7 6.5
6.0 6.1 6.3 6.3 6.4 6.1 5.5 4.9 4.4 4.2 4.2 4.4 4.8 5.2 5.7 6.4 6.7 6.8 6.8 6.8 6.9 6.8 6.9 7.1 7.0 6.9 7.1 7.1 6.9 6.9 6.9 6.9 6.9 6.7 6.7 6.8 6.5 6.5 6.5 6.9 6.8 6.9 6.7 6.9 6.8 6.7 6.7 6.8 6.7 6.7 6.7 6.9 7.1 7.2
6.7 6.7 6.7 6.6 6.5 6.3 6.1 5.9 5.7 5.4 5.3 5.7 6.1 6.4 6.7 6.7 6.6 6.7 6.8 6.9 7.0 7.0 7.0 6.9 6.8 6.6 6.9 6.8 6.7 6.4 6.3 6.4 6.5 6.4 6.5 6.4 6.4 6.4 6.8 6.7 6.4 6.6 6.7 6.8 6.9 6.9 6.9 7.0 7.1 7.1 7.0 7.1 7.3 7.6
7.0 7.0 7.0 6.8 6.7 6.8 6.7 6.6 6.5 6.5 6.7 6.8 7.0 7.1 7.1 6.9 6.8 6.8 6.9 7.1 7.1 7.1 7.0 6.8 6.8 6.6 6.9 6.8 6.6 6.4 6.3 6.4 6.4 6.5 6.5 6.3 6.4 6.7 6.6 7.0 7.2 7.2 7.2 7.3 7.2 7.2 7.2 7.1 7.2 7.4 7.5 7.4 7.5 7.6
6.7 6.5 6.3 6.3 6.4 6.4 6.5 6.7 6.9 6.9 6.9 7.1 7.2 7.2 7.2 7.1 7.1 7.0 7.1 7.0 7.0 7.0 6.9 6.8 6.7 6.6 6.9 6.7 6.4 6.5 6.4 6.4 6.4 6.8 6.4 6.4 6.6 7.0 7.1 7.2 7.2 7.2 7.2 7.2 7.2 7.4 7.5 7.5 7.6 7.5 7.4 7.3 7.3 7.4
6.2 6.2 6.2 6.1 6.1 6.1 6.0 6.1 6.3 6.5 6.7 6.8 7.1 7.2 7.1 7.1 7.0 6.9 6.9 6.9 6.9 6.8 6.9 6.7 6.5 6.5 6.7 6.5 6.5 6.5 6.5 6.6 6.6 6.7 6.7 6.9 7.1 7.2 7.2 7.2 7.2 7.2 7.1 7.1 7.2 7.2 7.3 7.3 7.3 7.2 7.2 7.3 7.3 7.3
6.0 5.9 5.9 5.9 5.8 5.7 5.7 5.7 5.8 6.0 6.2 6.6 6.8 6.7 6.8 6.8 6.8 6.9 6.8 6.8 6.8 6.7 6.6 6.6 6.6 6.8 6.6 6.6 6.5 6.6 6.6 6.7 6.9 6.8 7.0 7.2 7.3 7.2 7.2 7.2 7.2 7.3 7.3 7.4 7.3 7.3 7.2 7.1 7.1 7.0 7.2 7.2 7.2 7.2
5.9 5.8 5.8 5.8 5.7 5.6 5.6 5.7 5.8 5.8 5.9 6.1 6.3 6.5 6.6 6.6 6.7 6.8 6.7 6.7 6.7 6.7 6.7 6.8 6.9 6.6 6.6 6.4 6.6 6.7 6.8 6.9 6.9 7.2 7.5 7.4 7.4 7.2 7.1 7.1 7.1 7.3 7.4 7.4 7.5 7.4 7.3 7.3 7.2 7.1 7.0 7.0 7.1 7.3
5.7 5.7 5.7 5.7 5.7 5.7 5.7 5.7 5.8 5.9 5.9 6.0 6.2 6.4 6.5 6.6 6.6 6.7 6.8 6.9 6.6 6.7 6.7 6.6 6.8 6.8 6.7 6.7 7.0 7.1 7.0 7.0 7.2 7.6 7.5 7.4 7.2 7.1 7.0 6.9 6.9 7.0 7.2 7.3 7.3 7.3 7.3 7.2 7.1 7.1 7.0 7.0 7.1 7.2
5.7 5.7 5.7 5.8 5.8 5.8 5.8 5.9 5.9 5.9 6.2 6.2 6.6 6.8 6.6 6.6 6.5 6.6 6.6 6.6 6.6 6.6 6.5 6.5 6.6 6.5 6.8 7.1 7.2 7.4 7.3 7.6 7.6 7.3 7.2 7.0 7.3 7.4 7.1 6.8 6.9 7.0 7.0 7.1 7.2 7.2 7.2 7.1 7.2 7.2 7.1 7.1 6.9 6.9
5.7 5.8 5.8 5.8 5.8 5.8 5.8 5.8 5.9 6.1 6.2 6.5 6.8 6.8 6.7 6.6 6.5 6.4 6.4 6.4 6.5 6.4 6.6 6.5 6.6 6.5 7.0 7.1 7.4 7.9 7.8 7.7 7.4 7.3 7.3 7.3 7.4 7.3 7.3 7.3 7.3 7.2 7.2 7.2 7.3 7.2 7.2 7.1 7.0 6.9 7.0 6.9 7.0 7.0
5.9 5.9 5.9 6.0 6.0 6.0 5.9 5.9 6.0 6.0 6.3 6.6 6.6 6.7 6.6 6.6 6.6 6.5 6.4 6.4 6.4 6.6 6.5 6.4 6.5 6.7 7.0 7.0 7.1 7.3 7.4 7.4 7.3 7.1 7.0 7.1 7.1 7.2 7.2 7.2 7.2 7.1 7.1 7.1 7.1 7.2 7.1 7.1 7.1 7.1 7.2 7.3 7.4 7.4
5.9 5.9 5.9 6.0 6.0 5.9 5.8 6.0 6.1 6.1 6.3 6.4 6.6 6.7 6.9 6.9 6.8 6.7 6.7 6.6 6.5 6.6 6.5 6.7 6.7 6.7 6.6 6.8 6.9 6.8 6.9 6.9 6.9 7.0 6.9 6.8 6.8 6.8 6.9 6.9 7.0 7.1 7.1 7.2 7.2 7.2 7.3 7.4 7.3 7.4 7.5 7.5 7.4 7.5
5.8 5.9 6.0 6.1 6.1 6.0 5.9 6.0 6.1 6.2 6.6 6.6 6.7 6.9 7.1 7.1 7.1 7.0 6.9 6.9 6.8 6.6 6.7 6.8 6.7 6.8 6.8 6.8 6.8 6.8 6.8 6.8 6.8 6.6 6.6 6.6 6.6 6.5 6.4 6.4 6.4 6.5 6.4 6.5 6.6 6.7 7.0 7.3 7.4 7.3 7.3 7.2 7.2 7.4
5.7 5.8 5.9 6.0 6.0 6.0 5.9 5.9 6.1 6.2 6.5 6.9 6.9 7.0 7.4 7.4 7.4 7.3 7.2 7.1 6.8 6.8 6.7 6.8 6.9 6.8 6.9 7.0 6.9 6.8 6.8 6.7 6.5 6.4 6.3 6.3 6.4 6.5 6.5 6.5 6.5 6.4 6.4 6.4 6.5 6.6 6.7 6.9 7.0 7.1 7.2 7.3 7.2 7.2
5.4 5.7 5.8 6.0 6.0 6.0 6.1 6.2 6.1 6.4 6.6 6.9 7.3 7.2 7.3 7.5 7.3 7.4 7.2 7.3 7.3 7.3 7.0 6.8 6.9 6.8 6.8 6.7 6.7 6.7 6.5 6.4 6.3 6.2 6.2 6.3 6.2 6.1 6.1 6.0 6.0 6.0 6.0 5.9 6.0 6.0 6.0 6.0 6.2 6.2 6.4 6.7 6.8 6.9
5.3 5.4 5.6 5.7 5.9 6.1 6.3 6.5 6.6 6.7 6.6 6.9 7.2 7.2 7.2 7.3 7.3 7.5 7.3 7.6 7.4 7.1 6.9 6.8 6.8 6.7 6.6 6.7 6.6 6.4 6.3 6.2 6.0 5.9 5.7 5.7 5.7 5.6 5.5 5.5 5.5 5.6 5.6 5.6 5.6 5.6 5.6 5.7 5.7 5.7 5.6 5.6 5.6 5.6
5.3 5.2 5.3 5.7 6.1 6.1 6.5 6.8 6.8 6.8 6.9 7.0 7.0 7.1 7.0 7.2 7.1 7.1 7.2 7.6 7.2 7.0 6.9 6.8 6.6 6.5 6.5 6.3 6.2 6.1 5.9 5.7 5.5 5.5 5.6 5.5 5.5 5.5 5.6 5.7 5.8 5.9 6.0 6.1 6.0 6.1 6.2 6.2 6.1 5.9 5.7 5.6 5.6 5.4
5.1 5.4 5.7 6.0 6.0 6.2 6.6 7.0 7.1 7.0 7.1 7.1 6.9 7.0 7.0 6.9 6.9 6.8 7.1 7.4 7.1 7.0 6.9 6.8 6.4 6.2 6.1 5.9 5.8 5.7 5.6 5.4 5.4 5.5 5.5 5.6 5.7 5.8 6.2 6.5 6.7 6.9 6.9 6.9 6.9 6.9 7.1 7.1 6.7 6.3 6.1 6.1 5.9 5.8
5.3 5.5 5.7 6.0 6.3 6.5 6.8 6.9 6.9 6.8 6.8 6.7 6.7 6.8 6.9 6.7 6.7 7.0 7.3 7.1 6.8 6.5 6.3 6.3 6.2 6.0 5.5 5.2 5.2 5.2 5.2 5.4 5.5 5.5 5.7 6.1 6.4 6.6 6.8 7.0 7.0 7.2 7.2 7.1 7.2 7.5 7.9 7.8 7.2 6.6 6.3 6.1 6.0 5.9
5.2 5.7 6.0 6.2 6.5 6.7 6.7 6.8 6.8 6.7 6.6 6.7 6.9 7.0 6.8 6.7 6.8 7.1 6.9 6.6 6.2 6.1 6.1 6.0 5.9 5.6 5.3 5.1 5.1 5.2 5.3 5.5 5.7 6.2 6.5 6.7 6.7 6.8 6.9 7.0 7.1 7.1 7.1 7.1 7.2 7.5 7.4 7.1 6.9 6.7 6.6 6.5 6.1 5.8
5.4 5.7 6.1 6.4 6.4 6.5 6.5 6.6 6.7 6.7 6.8 7.0 6.8 6.8 6.8 6.9 7.0 6.9 6.6 6.3 6.2 6.2 6.0 5.7 5.5 5.3 5.1 5.0 5.1 5.3 5.7 6.1 6.4 6.6 6.6 6.8 6.8 6.8 6.7 6.6 6.4 6.3 6.5 6.6 6.8 6.7 6.6 6.7 6.9 6.8 6.7 6.7 6.5 5.9
6.0 6.0 6.0 6.2 6.2 6.3 6.6 6.7 6.8 6.9 6.9 6.8 6.8 6.9 7.1 7.2 7.0 6.8 6.7 6.4 6.4 6.2 5.9 5.6 5.3 5.1 5.0 5.0 5.2 5.6 6.0 6.1 6.2 6.3 6.5 6.7 6.7 6.7 6.4 6.3 6.3 6.2 6.3 6.5 6.5 6.5 6.5 6.7 6.8 6.8 6.8 6.8 6.7 6.5
6.0 5.9 6.1 6.3 6.4 6.5 6.8 6.7 6.8 6.8 7.0 7.0 7.1 7.3 7.4 7.4 7.2 7.0 6.9 6.8 6.5 6.1 5.9 5.5 5.2 5.0 4.9 5.0 5.5 6.0 5.9 5.9 6.0 6.1 6.3 6.4 6.5 6.4 6.3 6.2 6.2 6.2 6.3 6.4 6.5 6.6 6.5 6.6 6.6 6.7 6.7 6.6 6.6 6.7
6.1 6.1 6.2 6.4 6.7 6.7 6.6 6.6 6.9 7.0 7.2 7.3 7.3 7.3 7.3 7.4 7.6 7.2 6.9 6.7 6.4 6.0 5.7 5.3 4.9 4.7 4.8 4.9 5.5 5.7 5.8 6.0 6.1 6.2 6.2 6.1 6.0 6.1 6.0 6.0 6.0 6.1 6.2 6.3 6.4 6.4 6.5 6.5 6.5 6.5 6.6 6.6 6.6 6.8
6.2 6.3 6.2 6.4 6.5 6.5 6.5 6.7 7.0 7.2 7.4 7.5 7.5 7.4 7.5 7.4 7.3 7.1 6.8 6.6 6.2 5.8 5.4 5.0 4.6 4.4 4.5 4.9 5.4 5.4 5.7 5.9 5.9 5.9 5.9 6.0 6.0 5.9 5.9 5.9 6.0 6.0 6.1 6.1 6.2 6.3 6.4 6.4 6.4 6.5 6.5 6.5 6.6 6.7
6.2 6.2 6.2 6.1 6.4 6.5 6.5 6.5 6.7 7.1 7.5 7.6 7.7 7.7 7.5 7.2 7.0 6.8 6.5 6.2 5.9 5.6 5.3 4.8 4.5 4.4 4.5 5.0 5.3 5.6 5.7 5.7 5.6 5.6 5.7 5.9 5.9 5.9 5.9 5.9 5.9 6.0 6.1 6.2 6.4 6.4 6.4 6.5 6.5 6.6 6.7 6.8 6.8 6.8
Wind_Speed
31 30 29 27 27 25 24 23 23 24 22 19 18 17 16 13 8 3 4 7 2 2 5 4 3 4 4 5 4 5 5 3 4 5 4 5 6 5 6 12 10 12 8 10 13 10 9 8 20 7 10 24 23 23
25 26 26 26 25 22 22 21 23 23 22 19 17 16 14 14 11 5 4 4 5 2 3 1 4 5 5 3 4 8 2 4 4 4 3 3 5 5 10 11 9 9 8 8 7 9 18 21 6 16 19 21 22 14
23 24 23 24 23 21 20 19 20 21 20 18 17 16 14 12 12 7 5 4 2 1 2 3 5 6 9 10 5 4 5 4 4 2 2 4 8 7 10 10 12 13 12 10 13 9 10 19 20 18 14 18 17 13
20 20 19 19 19 18 17 18 19 19 19 17 16 15 15 12 10 7 4 3 2 1 1 2 2 3 2 9 14 13 3 4 2 4 5 6 8 7 10 11 11 12 13 17 17 16 16 15 12 17 23 20 16 17
17 17 17 17 17 18 17 18 18 18 17 16 15 14 15 12 10 9 5 3 3 3 2 3 5 1 3 8 12 12 11 9 5 5 4 7 9 8 10 13 14 13 15 10 12 13 10 21 21 24 20 15 14 16
17 16 16 17 17 17 17 19 17 17 17 18 17 15 15 13 7 2 2 3 1 3 2 2 3 1 0 4 7 9 9 7 6 3 4 6 13 3 4 8 13 8 11 13 14 14 17 20 20 16 13 13 13 14
21 19 17 17 19 18 18 19 19 19 18 17 16 17 15 8 2 2 3 3 3 0 1 3 1 2 2 1 3 4 7 4 5 3 5 9 7 5 4 13 16 12 12 12 15 13 10 5 7 13 12 13 12 11
28 27 26 26 25 23 23 23 25 22 21 19 20 18 14 13 6 3 5 7 2 1 1 2 2 1 3 2 2 4 4 4 5 4 2 5 4 4 5 8 4 6 9 11 11 10 3 5 9 11 11 12 13 13
29 29 29 29 28 26 26 27 26 23 23 23 19 13 4 1 2 3 3 5 1 2 2 1 3 3 1 2 2 2 3 4 4 5 4 4 4 6 9 8 8 3 5 8 9 4 3 7 10 11 11 12 13 13
30 30 29 29 29 28 28 26 25 22 22 14 4 1 2 3 6 5 3 1 0 1 2 3 1 3 2 2 2 2 3 2 3 5 3 4 5 11 10 9 4 4 5 8 7 7 8 9 9 11 11 11 11 13
27 27 27 27 28 27 26 25 23 18 4 1 1 2 3 5 2 1 1 2 1 2 3 3 4 5 3 4 2 3 2 2 3 3 3 4 3 3 4 3 2 4 4 4 4 6 7 8 9 10 10 11 10 12
25 24 25 24 23 22 21 18 9 2 2 3 4 4 1 2 1 1 1 1 4 2 3 3 3 3 2 3 3 3 3 2 4 5 3 3 4 7 4 2 1 2 1 3 4 6 7 8 9 10 11 11 10 11
18 20 19 19 17 15 13 10 8 9 6 1 2 2 1 1 4 3 4 3 2 2 2 2 6 3 2 4 3 3 4 4 0 3 3 2 6 4 1 1 2 1 2 3 5 6 7 9 10 10 11 12 12 10
11 9 8 6 6 7 7 7 6 3 1 1 2 2 3 3 4 4 3 0 1 2 4 4 4 3 2 3 3 4 3 3 4 4 2 3 3 3 1 2 4 4 4 6 6 7 9 9 9 8 5 8 9 9
6 6 5 6 7 5 3 1 2 1 1 2 3 3 6 4 3 3 3 3 4 4 4 4 3 3 3 4 3 4 3 4 4 3 2 1 2 3 4 5 4 5 5 7 8 8 7 7 8 8 6 7 9 9
1 2 3 4 8 8 5 3 1 1 0 2 4 4 3 3 4 3 5 6 5 4 1 1 3 3 5 3 4 5 3 4 3 3 2 1 2 1 3 4 5 6 6 6 7 7 8 7 8 10 8 7 8 8
0 1 7 6 7 5 8 1 1 2 3 3 4 5 5 6 7 5 3 3 1 3 3 2 4 3 3 4 4 2 4 3 4 4 2 3 2 2 4 4 4 5 7 7 8 9 9 9 9 9 10 11 11 10
2 2 8 8 5 3 3 2 2 3 5 5 4 3 5 5 5 5 3 4 3 3 3 4 3 4 4 4 4 4 5 7 7 7 6 7 7 6 5 6 6 7 8 8 8 9 8 9 10 8 10 11 11 10
0 1 2 3 1 0 1 3 2 3 4 4 5 5 5 5 7 8 6 5 5 2 2 3 5 3 4 2 3 4 4 5 7 4 5 5 5 4 4 5 5 6 8 8 8 7 7 9 8 7 8 9 9 9
7 8 9 4 3 2 2 2 2 3 3 2 3 5 4 4 3 2 3 3 4 3 5 5 5 0 2 1 2 2 3 4 5 4 2 2 4 5 4 5 5 7 6 7 7 7 7 7 6 7 8 9 9 10
2 3 5 7 3 3 2 2 4 3 4 3 4 4 4 3 4 4 4 3 4 3 6 3 3 4 4 3 2 2 2 4 4 4 5 6 6 5 5 5 6 6 5 6 7 7 7 8 8 8 9 9 9 10
1 2 2 3 3 4 3 3 3 2 3 4 3 4 4 3 4 2 1 4 2 1 1 2 3 5 4 4 2 2 4 5 4 4 4 5 5 5 5 6 7 7 6 6 7 8 8 8 8 10 10 10 12 11
2 3 2 3 3 4 2 2 4 3 3 2 2 3 3 2 0 1 2 1 1 1 1 2 3 2 1 4 3 1 3 5 3 4 4 5 5 5 6 7 7 8 8 8 8 8 9 11 12 11 11 11 11 11
3 3 3 4 5 2 1 3 3 3 2 3 3 3 2 2 1 3 3 2 2 3 3 3 1 1 2 2 2 2 2 4 5 5 5 6 7 7 8 8 8 8 8 8 10 9 9 11 13 11 12 13 12 12
3 4 4 4 3 3 4 3 3 3 3 3 2 3 1 2 2 3 3 2 4 4 3 2 2 2 3 2 3 3 3 4 5 7 7 6 7 8 9 8 8 8 8 9 10 10 11 11 12 13 13 13 14 16
5 5 7 7 4 5 5 3 4 5 2 2 4 1 1 2 3 4 2 4 4 5 4 4 3 3 3 3 4 4 4 4 6 7 7 7 8 9 10 10 9 8 7 8 10 13 14 13 14 17 15 17 16 15
5 6 4 3 2 2 2 2 1 3 4 5 2 2 2 4 5 2 3 3 3 3 3 3 2 3 3 4 4 4 4 5 6 7 8 8 7 7 7 8 11 10 11 13 12 13 14 14 14 15 15 15 15 14
6 4 6 5 4 3 2 2 4 5 4 3 3 5 3 4 2 2 2 3 3 4 3 3 1 1 2 3 4 4 4 4 6 7 6 6 5 5 7 7 8 15 11 11 11 12 12 13 14 16 16 16 14 14
4 3 5 4 2 4 6 6 4 3 3 4 3 4 3 2 1 2 2 3 4 4 4 3 3 0 2 2 3 3 4 5 7 10 12 9 8 7 8 9 10 10 10 11 16 15 16 14 15 15 17 15 15 14
4 5 4 4 4 6 3 4 1 1 1 2 2 1 2 2 1 1 3 5 5 5 4 3 1 1 2 3 4 5 4 4 3 5 8 10 10 11 10 10 11 11 11 11 12 13 16 14 14 12 12 11 11 12
3 4 3 3 3 1 1 2 2 2 1 2 1 4 6 3 2 3 5 4 4 4 4 4 3 2 3 3 4 6 6 2 3 8 9 8 10 10 11 11 11 10 11 12 12 12 12 13 12 13 14 15 16 14
4 5 4 4 2 1 0 1 1 1 1 2 2 1 1 2 3 2 3 6 6 5 5 3 3 2 2 3 3 4 6 6 7 7 10 9 10 10 10 10 10 10 11 12 11 11 13 13 12 12 12 14 13 12
2 1 1 2 2 2 1 2 1 2 2 1 1 1 1 2 4 0 2 5 7 6 5 4 2 2 3 4 4 3 4 5 9 10 11 11 12 11 10 9 9 10 11 11 10 10 12 14 12 13 12 12 11 11
Wind_Direction
112 117 118 117 116 122 124 127 129 124 123 126 120 113 109 99 84 87 85 31 15 118 134 193 177 173 159 196 191 132 170 198 187 217 241 239 254 251 257 261 278 279 279 274 267 259 274 0 343 341 306 300 303 304
118 121 126 126 129 134 132 132 135 131 132 130 123 115 104 87 74 70 99 53 28 63 67 183 244 262 253 238 197 177 259 159 189 227 219 275 253 254 267 275 272 263 251 293 303 298 318 316 314 297 292 286 291 288
118 118 121 123 130 134 137 135 132 134 131 128 128 121 109 85 69 76 98 61 75 88 189 215 219 215 221 223 232 202 220 217 200 260 283 264 258 267 267 274 289 274 260 272 289 280 298 308 299 300 311 314 316 310
125 127 126 125 128 131 131 133 135 139 138 135 137 128 117 105 90 85 85 79 59 62 308 120 129 217 214 210 212 224 258 187 239 203 230 254 261 264 271 282 281 275 282 268 273 282 291 276 296 311 322 319 324 333
122 125 132 139 148 148 143 133 133 135 140 139 135 137 140 126 103 89 91 71 39 333 316 296 301 116 241 219 219 222 223 218 214 217 237 251 262 273 265 267 270 271 268 259 262 271 301 292 306 314 308 316 340 337
127 135 144 152 152 152 149 153 143 135 134 141 139 134 135 130 135 158 88 89 106 350 337 318 35 206 169 198 217 211 207 215 222 208 247 256 251 250 270 273 289 280 263 255 262 277 285 295 297 293 329 338 342 339
101 108 119 135 145 142 133 138 139 127 132 135 133 131 124 123 90 29 42 62 145 74 320 305 318 109 326 176 138 174 194 197 214 222 230 249 255 201 255 265 271 279 300 303 286 298 277 296 322 326 333 335 344 339
87 89 95 109 120 121 123 131 135 131 129 131 130 124 112 106 119 129 85 111 21 328 306 320 305 258 11 294 228 172 174 198 203 240 239 240 248 215 257 264 316 293 303 301 299 285 327 325 328 333 337 334 341 341
96 96 98 101 106 112 120 127 128 128 125 125 122 119 114 119 108 70 131 160 35 308 317 291 309 347 144 250 264 213 180 201 179 221 226 214 209 224 249 277 281 19 318 323 323 324 320 334 343 341 341 340 339 340
99 100 101 102 106 110 113 117 117 118 122 130 166 83 87 62 102 162 158 162 268 183 220 256 243 280 223 243 221 251 213 258 231 211 158 232 252 264 278 304 315 308 327 330 337 348 350 344 349 344 341 335 336 334
104 107 109 105 107 109 113 120 125 126 150 212 92 73 75 158 220 6 179 253 164 236 204 243 266 295 184 247 257 222 273 226 256 149 229 207 233 145 176 125 63 21 356 346 345 354 352 344 341 334 336 334 334 335
107 106 105 106 108 112 119 130 146 218 33 56 87 99 117 193 149 260 226 192 227 270 189 260 330 282 259 220 246 209 257 222 253 143 248 245 125 138 165 157 133 93 18 357 358 2 358 352 346 339 333 335 334 329
112 113 111 110 110 107 100 92 83 104 130 130 80 91 240 133 220 226 191 202 224 195 225 304 321 287 180 210 240 244 231 235 161 225 236 66 134 116 147 193 236 216 267 307 327 334 341 339 336 337 334 338 333 331
119 130 135 129 117 112 94 73 81 154 213 225 179 211 228 195 235 215 251 152 101 229 282 303 296 267 290 228 239 248 221 240 239 239 210 134 138 88 84 238 271 277 304 311 310 323 327 326 333 327 326 328 329 333
137 164 189 218 218 216 219 289 20 345 177 231 216 239 224 242 254 260 279 266 239 257 268 283 259 239 250 260 233 256 229 242 247 343 36 89 59 19 24 11 318 313 327 314 330 335 338 340 333 325 336 334 343 337
106 201 227 240 228 222 214 179 126 252 65 240 236 255 243 268 258 245 245 256 254 249 266 235 261 258 242 245 239 228 250 253 35 9 348 124 114 327 316 317 334 346 337 332 330 328 329 330 325 318 315 317 336 336
182 139 321 266 203 194 168 196 216 225 236 226 237 249 258 278 275 271 253 261 241 225 248 232 245 250 308 256 253 280 335 20 350 329 277 248 284 329 343 343 344 344 334 338 334 333 326 325 316 314 323 331 329 326
71 81 29 106 116 133 159 172 254 263 248 239 250 257 229 234 262 258 245 235 228 231 222 226 308 230 236 250 267 21 340 337 346 341 24 47 26 22 12 356 346 338 337 339 329 321 323 323 323 331 334 326 321 336
25 281 314 29 68 160 246 200 241 261 254 281 269 251 248 256 248 252 259 241 230 253 262 207 244 248 244 40 338 343 348 356 341 54 64 52 39 25 357 353 333 336 335 332 335 335 327 329 329 323 326 331 323 323
295 259 242 231 229 211 232 200 203 259 265 271 250 256 247 247 255 220 227 222 214 204 215 230 256 250 250 132 35 3 356 340 342 330 352 10 1 346 352 339 333 326 323 326 323 319 330 323 327 331 329 322 317 321
288 81 135 172 200 241 272 236 231 239 274 253 266 254 266 234 241 234 241 188 215 229 256 227 196 143 116 103 73 333 320 335 337 323 322 319 334 322 330 333 330 314 322 325 322 318 317 317 317 327 317 314 311 309
209 194 138 187 209 194 261 230 266 300 255 263 267 249 265 258 253 245 185 213 260 234 242 178 162 161 171 178 145 0 346 321 304 299 282 302 317 326 332 332 327 321 316 315 316 314 314 313 326 316 315 312 311 307
194 202 195 183 187 212 249 204 236 218 248 252 249 249 237 246 244 186 246 244 82 32 144 110 99 119 124 152 160 319 348 331 321 322 318 314 308 307 309 314 315 307 304 307 314 307 309 323 310 314 308 304 308 308
157 208 207 208 213 226 195 220 224 242 251 246 234 262 254 269 265 239 247 185 129 162 154 130 148 184 201 212 274 302 326 320 309 302 313 314 310 314 316 310 309 307 305 311 305 308 312 310 309 307 305 300 300 301
198 206 208 208 209 211 219 219 222 231 248 221 257 260 275 296 250 248 251 185 194 197 186 194 227 249 280 293 276 276 278 301 308 307 309 311 308 307 307 311 313 312 310 305 305 309 303 304 302 301 300 298 295 298
226 198 198 200 191 206 201 218 206 214 215 244 240 291 301 260 248 246 211 179 194 202 205 217 236 256 265 268 299 297 309 318 303 292 298 318 305 297 300 309 312 312 323 320 306 302 301 301 299 298 297 298 295 294
242 222 202 218 218 185 216 233 203 220 223 221 212 219 236 243 242 196 153 193 198 190 188 189 221 259 292 305 301 309 309 299 287 295 303 292 287 285 297 301 305 310 320 311 303 299 299 299 297 296 296 295 293 292
228 210 196 185 198 208 203 198 206 220 221 188 177 205 224 224 252 137 178 154 174 162 162 160 162 299 305 305 309 305 301 302 292 284 288 279 279 290 296 294 302 309 303 298 299 296 292 291 294 294 294 293 292 288
213 186 157 171 191 204 217 213 226 211 189 188 203 217 236 202 126 178 172 173 170 179 186 198 192 254 264 293 286 295 298 302 309 309 314 317 320 319 325 316 311 312 309 304 303 301 300 300 296 295 294 291 290 290
209 179 181 173 198 215 213 209 230 51 263 262 289 281 238 206 221 211 184 181 189 196 191 184 158 260 304 311 315 310 302 291 265 290 310 311 315 317 312 312 313 314 312 309 309 308 306 307 307 303 301 299 299 298
147 172 180 193 237 224 24 352 275 234 267 261 265 266 284 334 274 221 213 198 177 157 172 195 218 231 265 304 316 316 321 348 298 295 294 298 302 306 311 314 312 311 309 311 314 312 313 314 313 312 313 317 317 315
186 198 190 207 229 106 349 284 298 275 284 246 209 270 270 271 266 193 191 186 181 195 203 213 231 280 281 292 294 275 272 292 301 305 309 307 307 313 313 315 312 315 317 317 316 316 319 321 321 325 327 330 338 356
133 167 235 268 230 222 133 288 262 297 228 256 251 290 245 266 265 351 147 222 217 207 197 194 222 286 297 292 283 294 299 313 310 299 297 300 304 312 315 320 322 321 320 322 322 326 329 334 337 342 346 352 6 19